Location: Blankensee
(53.5126°N, 14.3055°E)
Time: 05:48:35
(UTC+00:00)

Timation 1 Rocket - Pass Details

Date: 08 August 2020
Orbit: 898 x 909 km, 70.0° (Epoch: 24 September)

Event Time Altitude Azimuth Distance (km) Brightness Sun altitude
Exits shadow 02:26:48 - 206° (SSW) 2,728 6.3 -8.5°
Reaches altitude 10° 02:27:14 10° 206° (SSW) 2,569 6.1 -8.5°
Maximum altitude 02:33:10 79° 121° (ESE) 921 4.5 -7.8°
Drops below altitude 10° 02:39:08 10° 36° (NE) 2,586 8.3 -7.2°
Sets 02:41:39 0° 35° (NE) 3,531 9.2 -6.9°
